Regional Weather Roundup
Issued by NWS Grand Forks, ND

Home | Current Version | Previous Version | Text Only | Print | Product List | Glossary Off
Versions: 1 2 3 4 5 6 7 8 9 10 11 12 13 14 15 16 17 18 19 20 21 22 23 24 25 26 27 28 29 30 31 32 33 34 35 36 37 38 39 40 41 42 43 44 45 46 47 48 49 50

000
ASUS43 KFGF 200731
RWRFGF
PRAIRIE TO PINES  WEATHER ROUNDUP
NATIONAL WEATHER SERVICE EASTERN NORTH DAKOTA/GRAND FORKS ND
200 AM CDT MON OCT 20 2014

 **SATELLITE DATA USED TO AUGMENT SKY COVER AT AUTOMATED STATIONS**
 *****  WEATHER ACROSS EASTERN NORTH DAKOTA  *****

CITY           SKY/WX    TMP DP  RH WIND       PRES   REMARKS
GRAND FORKS    FAIR      42  37  82 W7        29.95R
GRAND FRKS AFB FAIR      43  38  83 NW9       29.96R
GRAND FRKS NWS   N/A     41 N/A N/A NW6         N/A
DEVILS LAKE    FAIR      43  34  70 W5        29.98R
FARGO          FAIR      45  37  73 NW6       29.95R
WAHPETON ARPT  FAIR      37  30  75 NW6       29.97R
$$

 ***** WEATHER ACROSS CENTRAL AND WESTERN NORTH DAKOTA  *****

CITY           SKY/WX    TMP DP  RH WIND       PRES   REMARKS
BISMARCK       FAIR      37  35  92 CALM      30.04R
MINOT          FAIR      46  33  60 SW12      29.99R
JAMESTOWN      FAIR      42  36  79 CALM      29.99R
MINOT AFB      FAIR      39  34  83 W8        29.98R
GARRISON         N/A     36  31  82 CALM      30.02R
WILLISTON      FAIR      39  34  82 SW3       29.99S
DICKINSON      FAIR      40  34  79 S10       30.02S
HETTINGER      FAIR      34  29  82 CALM      30.06S
$$

 *****  OTHER AIRPORT OBSERVATIONS IN OUR AREA  *****

CITY           SKY/WX    TMP DP  RH WIND       PRES   REMARKS
WALHALLA       FAIR      45  41  87 NW5       29.99R
GRAFTON AIRPOR FAIR      45  39  81 NW8       29.97R
VALLEY CITY AR FAIR      39  39 100 N3        29.99R
CANDO          FAIR      36  34  93 NW3       30.00R
CAVALIER APRT  FAIR      46  39  76 N8        29.98R
GWINNER        SUNNY     50  37  62 W8        30.00R
ROLLA          FAIR      39  34  81 NW8       30.01R
 ***** THE ABOVE OBSERVATIONS ARE NON NWS ARE NOT QUALITY
       CONTROLLED AND MAY MIS-REPORT RAIN FOR SNOW...
$$

  *****  WEATHER ACROSS NORTHERN MINNESOTA  *****

CITY           SKY/WX    TMP DP  RH WIND       PRES   REMARKS
FLAG ISLAND    FAIR      45  41  87 NW10      29.90R
WARROAD        FAIR      43  37  81 NW7       29.93R
ROSEAU         FAIR      39  36  87 W3        29.93R
HALLOCK        FAIR      41  37  87 NW6       29.96R
THF RVR FALLS  FAIR      43  37  81 N6        29.94R
BAUDETTE       FAIR      45  41  86 NW8       29.89R
WASKISH        FAIR      45  43  93 CALM      29.90R
CROOKSTON      FAIR      39  36  87 N5        29.96R
STEPHEN NDAWN    N/A     43  37  81 N7          N/A
GREENBUSH NDAW   N/A     39  37  93 NW3         N/A
$$
  *****  WEATHER ACROSS CENTRAL AND WEST MINNESOTA  *****

CITY           SKY/WX    TMP DP  RH WIND       PRES   REMARKS
FOSSTON        FAIR      39  37  93 CALM      29.94R
BEMIDJI        FAIR      40  37  89 NW3       29.91R
PARK RAPIDS    FAIR      43  39  86 NW7       29.90R
ELBOW LAKE     FAIR      42  37  81 W5        29.95R
WADENA         FAIR      45  39  81 W6        29.92R
DETROIT LAKES  FAIR      45  39  81 NW5       29.95R
MOORHEAD       FAIR      45  41  87 NW5       29.96R
FERGUS FALLS   FAIR      41  34  75 W6        29.97R
MORRIS MN      FAIR      41  36  81 W8        29.95R
STAPLES        FAIR      45  39  81 W6        29.91R
$$
  *****  WEATHER ELSEWHERE ACROSS MINNESOTA  *****

CITY           SKY/WX    TMP DP  RH WIND       PRES   REMARKS
DULUTH         FAIR      49  40  71 NW12      29.82R
INTRNTL FALLS  MOCLDY    34  33  96 CALM      29.86R
ELY            CLOUDY    46  39  76 NW6       29.83R
CLOQUET        FAIR      46  39  76 W7        29.85R
WHEATON        FAIR      45  37  76 W5        29.98R
BRAINERD       FAIR      47  42  83 NW5       29.90R
HIBBING        FAIR      44  38  79 NW6       29.85R
ALEXANDRIA     FAIR      45  39  79 NW5       29.95R
SAINT CLOUD    FAIR      50  41  71 NW3       29.91R
MINNEAPOLIS    FAIR      51  42  71 NW8       29.89R
$$

  *****  WEATHER ACROSS SOUTH DAKOTA  *****

CITY           SKY/WX    TMP DP  RH WIND       PRES   REMARKS
SIOUX FALLS    FAIR      44  38  79 CALM      30.00R
BROOKINGS      NOT AVBL
WATERTOWN      FAIR      41  39  93 SW3       29.99R
HURON          FAIR      36  32  85 NW3       30.02R
SISSETON         N/A     48  39  71 NW9       29.96R
ABERDEEN       FAIR      43  36  76 NW3       30.01R
MITCHELL       FAIR      45  37  73 W6        30.03R
PIERRE         FAIR      44  35  70 CALM      30.04R
MOBRIDGE       FAIR      40  36  86 CALM      30.03R
RAPID CITY     FAIR      43  36  76 W5        30.09R
$$

  *****  SOME WEATHER IN NEARBY STATES *****

CITY           SKY/WX    TMP DP  RH WIND       PRES   REMARKS
GLASGOW MT     FAIR      46  38  73 E16       29.92F
GREAT FALLS MT FAIR      55  28  35 S14       29.88F
CHEYENNE WY    FAIR      41  33  73 W5        30.21R
SCOTTSBLUFF NE FAIR      42  35  76 N3        30.13R
OMAHA NE       FAIR      52  47  83 CALM      29.97R
DES MOINES IA  FAIR      53  46  77 W6        29.92S
DAVENPORT IA   FAIR      51  42  71 SW12      29.86F
CHICAGO IL     FAIR      51  43  74 SW9       29.86F
EAU CLAIRE WI  FAIR      51  41  68 NW7       29.83R
LA CROSSE WI   FAIR      46  43  89 CALM      29.81R
$$

  *****  SOME NATIONAL WEATHER *****

CITY           SKY/WX    TMP DP  RH WIND       PRES   REMARKS
LA GUARDIA NY  FAIR      44  28  53 W9        30.08R
RALEIGH NC     FAIR      43  40  89 CALM      30.13F
ATLANTA GA     FAIR      56  48  74 CALM      30.10F
NEW ORLEANS LA FAIR      62  55  77 E3        30.05F
OKLAHOMA CITY  FAIR      58  52  80 S6        30.04F
ALBUQUERQUE NM FAIR      51  40  65 CALM      30.17R
SALT LAKE CITY FAIR      52  40  63 SE9       30.03F
LOS ANGELES CA MOCLDY    67  62  84 W8        29.89R
BOISE ID       FAIR      60  30  32 SE13      29.84F
SEATTLE WA     MOCLDY    61  55  81 CALM      29.71S
$$

*** WEATHER ACROSS MANITOBA...SASKATCHEWAN AND ONTARIO ***
                ***ONTARIO***

CITY           SKY/WX    TMP DP  RH WIND       PRES   REMARKS
GERALDTON      FOG       37  37 100 CALM      29.74R VSB 1/2
THUNDER BAY    CLOUDY    46  43  87 NW8       29.78R
SIOUX LOOKOUT  DRIZZLE   43  43 100 N6        29.84R
TORONTO        MOCLDY    43  36  75 S3        29.96F
BIG TROUT LK   FOG       32  32 100 N6        29.89R VSB 3/4
PICKLE LAKE    NOT AVBL
DRYDEN         CLOUDY    45  41  87 NW6       29.85R
KENORA         MOCLDY    45  41  87 NW5       29.89R
$$
                *** MANITOBA***

CITY           SKY/WX    TMP DP  RH WIND       PRES   REMARKS
BRANDON        CLEAR     34  30  86 NE5       30.01R
DAUPHIN        CLEAR     32  32 100 W6        30.01R
ISLAND LAKE    CLOUDY    36  36 100 N5        29.97R
PILOT MOUND      N/A     39  37  93 NW3         N/A
THE PAS        CLOUDY    43  39  87 SE3       29.99R
THOMPSON       DRIZZLE   36  36 100 NW2       30.02R FOG
WINNIPEG       CLEAR     34  34 100 N8        29.98R
LYNN LAKE      CLOUDY    36  34  93 SE5       29.98R
CHURCHILL      CLOUDY    34  32  93 NW8       29.98R
GILLAM         CLOUDY    34  34 100 NW7       30.00R
$$
                ***SASKATCHEWAN***

CITY           SKY/WX    TMP DP  RH WIND       PRES   REMARKS
ESTEVAN        CLEAR     41  37  87 S6        29.98R
KINDERSLEY     PTCLDY    50  39  66 S13       29.76F
LLOYDMINSTER   PTCLDY    50  37  62 SE10      29.66F
PRINCE ALBERT  CLEAR     37  36  93 E7        29.85F
REGINA         CLEAR     39  36  87 SE9       29.92F
YORKTON        CLEAR     41  36  81 S6        29.96R
N. BATTLEFORD  CLEAR     50  39  66 SE14      29.76F
LA RONGE       PTCLDY    43  41  93 E7        29.87F
SASKATOON      CLEAR     45  39  81 S9        29.84F
SWIFT CURRENT  CLEAR     48  41  76 S15       29.84F
$$
NOTE: THESE ARE AUTOMATED STATIONS WITH LIMITED QUALITY CONTROL
      "FAIR" INDICATES FEW OR NO CLOUDS BELOW 12,000 FEET WITH NO
      SIGNIFICANT WEATHER AND/OR OBSTRUCTIONS TO VISIBILITY.
      SKY/WX - SKY CONDITION AND SIGNIFICANT WEATHER.
      TMP - AIR TEMPERATURE.    DP   - DEWPOINT TEMPERATURE.
      RH  - RELATIVE HUMIDITY.  PRES - PRESSURE.
      HX  - HEAT INDEX.         WCI  - WIND CHILL INDEX.
$


USA.gov is the U.S. government's official web portal to all federal, state and local government web resources and services.